Time,TemperatureF,DewpointF,PressureIn,WindDirection,WindDirectionDegrees,WindSpeedMPH,WindSpeedGustMPH,Humidity,HourlyPrecipIn,Conditions,Clouds,dailyrainin,SoftwareType,DateUTC
2013-03-14 00:02:00,49.0,-99.9,-100.00,NW,316,5.0,-999.0,-999,0.00,,,-99.99,,2013-03-14 05:02:00,
2013-03-14 00:13:00,49.0,-99.9,-100.00,NW,316,5.0,-999.0,-999,0.00,,,-99.99,,2013-03-14 05:13:00,
2013-03-14 00:22:00,49.0,-99.9,-100.00,NW,323,3.0,-999.0,-999,0.00,,,-99.99,,2013-03-14 05:22:00,
2013-03-14 00:33:00,49.0,-99.9,-100.00,NNW,332,5.0,-999.0,-999,0.00,,,-99.99,,2013-03-14 05:33:00,
2013-03-14 00:43:00,49.0,-99.9,-100.00,NNW,332,5.0,-999.0,-999,0.00,,,-99.99,,2013-03-14 05:43:00,
2013-03-14 00:53:00,48.0,-99.9,-100.00,NW,322,7.0,-999.0,-999,0.00,,,-99.99,,2013-03-14 05:53:00,
2013-03-14 01:02:00,47.0,-99.9,-100.00,NNW,336,5.0,-999.0,-999,0.00,,,-99.99,,2013-03-14 06:02:00,
2013-03-14 01:12:00,47.0,-99.9,-100.00,NNW,336,5.0,-999.0,-999,0.00,,,-99.99,,2013-03-14 06:12:00,
2013-03-14 01:22:00,47.0,-99.9,-100.00,NNW,332,3.0,-999.0,-999,0.00,,,-99.99,,2013-03-14 06:22:00,
2013-03-14 01:33:00,46.0,-99.9,-100.00,NNW,333,3.0,-999.0,-999,0.00,,,-99.99,,2013-03-14 06:33:00,
2013-03-14 01:42:00,46.0,-99.9,-100.00,NNW,333,3.0,-999.0,-999,0.00,,,-99.99,,2013-03-14 06:42:00,
2013-03-14 01:52:00,46.0,-99.9,-100.00,NNW,338,5.0,-999.0,-999,0.00,,,-99.99,,2013-03-14 06:52:00,
2013-03-14 02:02:00,46.0,-99.9,-100.00,NNW,338,5.0,-999.0,-999,0.00,,,-99.99,,2013-03-14 07:02:00,
2013-03-14 02:12:00,46.0,-99.9,-100.00,NNW,338,5.0,-999.0,-999,0.00,,,-99.99,,2013-03-14 07:12:00,
2013-03-14 02:22:00,47.0,-99.9,-100.00,NNW,339,5.0,-999.0,-999,0.00,,,-99.99,,2013-03-14 07:22:00,
2013-03-14 02:32:00,47.0,-99.9,-100.00,North,352,6.0,-999.0,-999,0.00,,,-99.99,,2013-03-14 07:32:00,
2013-03-14 02:43:00,47.0,-99.9,-100.00,North,352,6.0,-999.0,-999,0.00,,,-99.99,,2013-03-14 07:43:00,
2013-03-14 02:52:00,47.0,-99.9,-100.00,North,359,7.0,-999.0,-999,0.00,,,-99.99,,2013-03-14 07:52:00,
2013-03-14 03:02:00,47.0,-99.9,-100.00,North,353,10.0,-999.0,-999,0.00,,,-99.99,,2013-03-14 08:02:00,
2013-03-14 03:12:00,47.0,-99.9,-100.00,North,353,10.0,-999.0,-999,0.00,,,-99.99,,2013-03-14 08:12:00,
2013-03-14 03:22:00,46.0,-99.9,-100.00,North,352,10.0,-999.0,-999,0.00,,,-99.99,,2013-03-14 08:22:00,
2013-03-14 03:32:00,46.0,-99.9,-100.00,North,350,8.0,-999.0,-999,0.00,,,-99.99,,2013-03-14 08:32:00,
2013-03-14 03:42:00,46.0,-99.9,-100.00,North,350,8.0,-999.0,-999,0.00,,,-99.99,,2013-03-14 08:42:00,
2013-03-14 03:52:00,46.0,-99.9,-100.00,NNW,339,10.0,-999.0,-999,0.00,,,-99.99,,2013-03-14 08:52:00,
2013-03-14 04:02:00,45.0,-99.9,-100.00,North,359,8.0,-999.0,-999,0.00,,,-99.99,,2013-03-14 09:02:00,
2013-03-14 04:12:00,45.0,-99.9,-100.00,North,359,8.0,-999.0,-999,0.00,,,-99.99,,2013-03-14 09:12:00,
2013-03-14 04:22:00,45.0,-99.9,-100.00,NNW,347,7.0,-999.0,-999,0.00,,,-99.99,,2013-03-14 09:22:00,
2013-03-14 04:32:00,45.0,-99.9,-100.00,North,359,7.0,-999.0,-999,0.00,,,-99.99,,2013-03-14 09:32:00,
2013-03-14 04:42:00,45.0,-99.9,-100.00,North,359,7.0,-999.0,-999,0.00,,,-99.99,,2013-03-14 09:42:00,
2013-03-14 04:52:00,44.0,-99.9,-100.00,North,359,10.0,-999.0,-999,0.00,,,-99.99,,2013-03-14 09:52:00,
2013-03-14 05:02:00,44.0,-99.9,-100.00,North,8,12.0,-999.0,-999,0.00,,,-99.99,,2013-03-14 10:02:00,
2013-03-14 05:12:00,44.0,-99.9,-100.00,North,8,12.0,-999.0,-999,0.00,,,-99.99,,2013-03-14 10:12:00,
2013-03-14 05:22:00,44.0,-99.9,-100.00,NNW,347,6.0,-999.0,-999,0.00,,,-99.99,,2013-03-14 10:22:00,
2013-03-14 05:32:00,43.0,-99.9,-100.00,North,8,6.0,-999.0,-999,0.00,,,-99.99,,2013-03-14 10:32:00,
2013-03-14 05:42:00,43.0,-99.9,-100.00,North,8,6.0,-999.0,-999,0.00,,,-99.99,,2013-03-14 10:42:00,
2013-03-14 05:52:00,42.0,-99.9,-100.00,NNW,330,6.0,-999.0,-999,0.00,,,-99.99,,2013-03-14 10:52:00,
2013-03-14 06:02:00,42.0,-99.9,-100.00,North,359,6.0,-999.0,-999,0.00,,,-99.99,,2013-03-14 11:02:00,
2013-03-14 06:12:00,41.0,-99.9,-100.00,North,0,6.0,-999.0,-999,0.00,,,-99.99,,2013-03-14 11:12:00,
2013-03-14 06:22:00,41.0,-99.9,-100.00,North,0,6.0,-999.0,-999,0.00,,,-99.99,,2013-03-14 11:22:00,
2013-03-14 06:33:00,41.0,-99.9,-100.00,North,356,4.0,-999.0,-999,0.00,,,-99.99,,2013-03-14 11:33:00,
2013-03-14 06:42:00,41.0,-99.9,-100.00,North,356,4.0,-999.0,-999,0.00,,,-99.99,,2013-03-14 11:42:00,
2013-03-14 06:53:00,42.0,-99.9,-100.00,North,354,8.0,-999.0,-999,0.00,,,-99.99,,2013-03-14 11:53:00,
2013-03-14 07:02:00,42.0,-99.9,-100.00,North,10,6.0,-999.0,-999,0.00,,,-99.99,,2013-03-14 12:02:00,
2013-03-14 07:12:00,42.0,-99.9,-100.00,North,10,6.0,-999.0,-999,0.00,,,-99.99,,2013-03-14 12:12:00,
2013-03-14 07:22:00,43.0,-99.9,-100.00,North,359,8.0,-999.0,-999,0.00,,,-99.99,,2013-03-14 12:22:00,
2013-03-14 07:33:00,43.0,-99.9,-100.00,NNE,13,16.0,-999.0,-999,0.00,,,-99.99,,2013-03-14 12:33:00,
2013-03-14 07:43:00,43.0,-99.9,-100.00,NNE,13,16.0,-999.0,-999,0.00,,,-99.99,,2013-03-14 12:43:00,
2013-03-14 07:52:00,44.0,-99.9,-100.00,North,353,6.0,-999.0,-999,0.00,,,-99.99,,2013-03-14 12:52:00,
2013-03-14 08:03:00,44.0,-99.9,-100.00,North,6,21.0,-999.0,-999,0.00,,,-99.99,,2013-03-14 13:03:00,
2013-03-14 08:13:00,44.0,-99.9,-100.00,North,6,21.0,-999.0,-999,0.00,,,-99.99,,2013-03-14 13:13:00,
2013-03-14 08:22:00,45.0,-99.9,-100.00,NNE,17,7.0,-999.0,-999,0.00,,,-99.99,,2013-03-14 13:22:00,
2013-03-14 08:33:00,46.0,-99.9,-100.00,North,354,7.0,-999.0,-999,0.00,,,-99.99,,2013-03-14 13:33:00,
2013-03-14 08:43:00,46.0,-99.9,-100.00,North,354,7.0,-999.0,-999,0.00,,,-99.99,,2013-03-14 13:43:00,
2013-03-14 08:53:00,47.0,-99.9,-100.00,North,10,12.0,-999.0,-999,0.00,,,-99.99,,2013-03-14 13:53:00,
2013-03-14 09:02:00,47.0,-99.9,-100.00,North,353,14.0,-999.0,-999,0.00,,,-99.99,,2013-03-14 14:02:00,
2013-03-14 09:12:00,47.0,-99.9,-100.00,North,353,14.0,-999.0,-999,0.00,,,-99.99,,2013-03-14 14:12:00,
2013-03-14 09:22:00,49.0,-99.9,-100.00,NNE,25,17.0,-999.0,-999,0.00,,,-99.99,,2013-03-14 14:22:00,
2013-03-14 09:32:00,49.0,-99.9,-100.00,NE,41,10.0,-999.0,-999,0.00,,,-99.99,,2013-03-14 14:32:00,
2013-03-14 09:43:00,49.0,-99.9,-100.00,NE,41,10.0,-999.0,-999,0.00,,,-99.99,,2013-03-14 14:43:00,
2013-03-14 09:53:00,50.0,-99.9,-100.00,NNE,17,10.0,-999.0,-999,0.00,,,-99.99,,2013-03-14 14:53:00,
2013-03-14 10:02:00,51.0,-99.9,-100.00,North,7,15.0,-999.0,-999,0.00,,,-99.99,,2013-03-14 15:02:00,
2013-03-14 10:12:00,51.0,-99.9,-100.00,North,7,15.0,-999.0,-999,0.00,,,-99.99,,2013-03-14 15:12:00,
2013-03-14 10:22:00,53.0,-99.9,-100.00,NE,34,13.0,-999.0,-999,0.00,,,-99.99,,2013-03-14 15:22:00,
2013-03-14 10:33:00,53.0,-99.9,-100.00,NNE,23,11.0,-999.0,-999,0.00,,,-99.99,,2013-03-14 15:33:00,
2013-03-14 10:43:00,53.0,-99.9,-100.00,NNE,23,11.0,-999.0,-999,0.00,,,-99.99,,2013-03-14 15:43:00,
2013-03-14 10:52:00,55.0,-99.9,-100.00,NNE,25,14.0,-999.0,-999,0.00,,,-99.99,,2013-03-14 15:52:00,
2013-03-14 11:03:00,55.0,-99.9,-100.00,NNE,17,11.0,-999.0,-999,0.00,,,-99.99,,2013-03-14 16:03:00,
2013-03-14 11:13:00,55.0,-99.9,-100.00,NNE,17,11.0,-999.0,-999,0.00,,,-99.99,,2013-03-14 16:13:00,
2013-03-14 11:23:00,56.0,-99.9,-100.00,NE,39,9.0,-999.0,-999,0.00,,,-99.99,,2013-03-14 16:23:00,
2013-03-14 11:33:00,58.0,-99.9,-100.00,North,4,7.0,-999.0,-999,0.00,,,-99.99,,2013-03-14 16:33:00,
2013-03-14 11:42:00,58.0,-99.9,-100.00,North,4,7.0,-999.0,-999,0.00,,,-99.99,,2013-03-14 16:42:00,
2013-03-14 11:52:00,58.0,-99.9,-100.00,ENE,65,10.0,-999.0,-999,0.00,,,-99.99,,2013-03-14 16:52:00,
2013-03-14 12:03:00,58.0,-99.9,-100.00,NE,51,9.0,-999.0,-999,0.00,,,-99.99,,2013-03-14 17:03:00,
2013-03-14 12:13:00,58.0,-99.9,-100.00,NE,51,9.0,-999.0,-999,0.00,,,-99.99,,2013-03-14 17:13:00,
2013-03-14 12:24:00,59.0,-99.9,-100.00,North,8,11.0,-999.0,-999,0.00,,,-99.99,,2013-03-14 17:24:00,
2013-03-14 12:33:00,60.0,-99.9,-100.00,NNE,31,8.0,-999.0,-999,0.00,,,-99.99,,2013-03-14 17:33:00,
2013-03-14 12:42:00,60.0,-99.9,-100.00,NNE,31,8.0,-999.0,-999,0.00,,,-99.99,,2013-03-14 17:42:00,
2013-03-14 12:53:00,61.0,-99.9,-100.00,ENE,65,12.0,-999.0,-999,0.00,,,-99.99,,2013-03-14 17:53:00,
2013-03-14 13:03:00,63.0,-99.9,-100.00,NE,51,10.0,-999.0,-999,0.00,,,-99.99,,2013-03-14 18:03:00,
2013-03-14 13:13:00,63.0,-99.9,-100.00,NE,51,10.0,-999.0,-999,0.00,,,-99.99,,2013-03-14 18:13:00,
2013-03-14 13:23:00,62.0,-99.9,-100.00,ENE,60,7.0,-999.0,-999,0.00,,,-99.99,,2013-03-14 18:23:00,
2013-03-14 13:33:00,66.0,-99.9,-100.00,NNE,30,8.0,-999.0,-999,0.00,,,-99.99,,2013-03-14 18:33:00,
2013-03-14 13:43:00,66.0,-99.9,-100.00,NNE,30,8.0,-999.0,-999,0.00,,,-99.99,,2013-03-14 18:43:00,
2013-03-14 13:53:00,65.0,-99.9,-100.00,ENE,58,8.0,-999.0,-999,0.00,,,-99.99,,2013-03-14 18:53:00,
2013-03-14 14:03:00,66.0,-99.9,-100.00,NE,45,12.0,-999.0,-999,0.00,,,-99.99,,2013-03-14 19:03:00,
2013-03-14 14:12:00,66.0,-99.9,-100.00,NE,45,12.0,-999.0,-999,0.00,,,-99.99,,2013-03-14 19:12:00,
2013-03-14 14:23:00,66.0,-99.9,-100.00,ENE,70,10.0,-999.0,-999,0.00,,,-99.99,,2013-03-14 19:23:00,
2013-03-14 14:32:00,65.0,-99.9,-100.00,ENE,77,13.0,-999.0,-999,0.00,,,-99.99,,2013-03-14 19:32:00,
2013-03-14 14:43:00,65.0,-99.9,-100.00,ENE,77,13.0,-999.0,-999,0.00,,,-99.99,,2013-03-14 19:43:00,
2013-03-14 15:02:00,67.0,-99.9,-100.00,NE,39,8.0,-999.0,-999,0.00,,,-99.99,,2013-03-14 20:02:00,
2013-03-14 15:12:00,67.0,-99.9,-100.00,NE,39,8.0,-999.0,-999,0.00,,,-99.99,,2013-03-14 20:12:00,
2013-03-14 15:22:00,66.0,-99.9,-100.00,ENE,66,12.0,-999.0,-999,0.00,,,-99.99,,2013-03-14 20:22:00,
2013-03-14 15:32:00,68.0,-99.9,-100.00,NNE,32,9.0,-999.0,-999,0.00,,,-99.99,,2013-03-14 20:32:00,
2013-03-14 15:43:00,68.0,-99.9,-100.00,NNE,32,9.0,-999.0,-999,0.00,,,-99.99,,2013-03-14 20:43:00,
2013-03-14 15:53:00,67.0,-99.9,-100.00,ENE,60,8.0,-999.0,-999,0.00,,,-99.99,,2013-03-14 20:53:00,
2013-03-14 16:03:00,67.0,-99.9,-100.00,ENE,72,10.0,-999.0,-999,0.00,,,-99.99,,2013-03-14 21:03:00,
2013-03-14 16:13:00,67.0,-99.9,-100.00,ENE,72,10.0,-999.0,-999,0.00,,,-99.99,,2013-03-14 21:13:00,
2013-03-14 16:23:00,66.0,-99.9,-100.00,ENE,65,10.0,-999.0,-999,0.00,,,-99.99,,2013-03-14 21:23:00,
2013-03-14 16:33:00,67.0,-99.9,-100.00,ENE,58,10.0,-999.0,-999,0.00,,,-99.99,,2013-03-14 21:33:00,
2013-03-14 16:44:00,67.0,-99.9,-100.00,ENE,58,10.0,-999.0,-999,0.00,,,-99.99,,2013-03-14 21:44:00,
2013-03-14 16:53:00,67.0,-99.9,-100.00,ESE,104,7.0,-999.0,-999,0.00,,,-99.99,,2013-03-14 21:53:00,
2013-03-14 17:04:00,67.0,-99.9,-100.00,ESE,108,6.0,-999.0,-999,0.00,,,-99.99,,2013-03-14 22:04:00,
2013-03-14 17:13:00,67.0,-99.9,-100.00,ESE,108,6.0,-999.0,-999,0.00,,,-99.99,,2013-03-14 22:13:00,
2013-03-14 17:23:00,66.0,-99.9,-100.00,ESE,121,0.0,-999.0,-999,0.00,,,-99.99,,2013-03-14 22:23:00,
2013-03-14 17:33:00,66.0,-99.9,-100.00,ENE,76,3.0,-999.0,-999,0.00,,,-99.99,,2013-03-14 22:33:00,
2013-03-14 17:42:00,66.0,-99.9,-100.00,ENE,76,3.0,-999.0,-999,0.00,,,-99.99,,2013-03-14 22:42:00,
2013-03-14 17:53:00,67.0,-99.9,-100.00,ENE,58,0.0,-999.0,-999,0.00,,,-99.99,,2013-03-14 22:53:00,
2013-03-14 18:03:00,65.0,-99.9,-100.00,ESE,107,3.0,-999.0,-999,0.00,,,-99.99,,2013-03-14 23:03:00,
2013-03-14 18:12:00,65.0,-99.9,-100.00,ESE,107,3.0,-999.0,-999,0.00,,,-99.99,,2013-03-14 23:12:00,
2013-03-14 18:23:00,63.0,-99.9,-100.00,SW,224,8.0,-999.0,-999,0.00,,,-99.99,,2013-03-14 23:23:00,
2013-03-14 18:33:00,63.0,-99.9,-100.00,SW,228,6.0,-999.0,-999,0.00,,,-99.99,,2013-03-14 23:33:00,
2013-03-14 18:43:00,63.0,-99.9,-100.00,SW,228,6.0,-999.0,-999,0.00,,,-99.99,,2013-03-14 23:43:00,
2013-03-14 18:54:00,62.0,-99.9,-100.00,WSW,242,8.0,-999.0,-999,0.00,,,-99.99,,2013-03-14 23:54:00,
2013-03-14 19:02:00,59.0,-99.9,-100.00,WSW,242,8.0,-999.0,-999,0.00,,,-99.99,,2013-03-15 00:02:00,
2013-03-14 19:12:00,57.0,-99.9,-100.00,WSW,248,11.0,-999.0,-999,0.00,,,-99.99,,2013-03-15 00:12:00,
2013-03-14 19:23:00,57.0,-99.9,-100.00,WSW,248,11.0,-999.0,-999,0.00,,,-99.99,,2013-03-15 00:23:00,
2013-03-14 19:33:00,55.0,-99.9,-100.00,WSW,248,9.0,-999.0,-999,0.00,,,-99.99,,2013-03-15 00:33:00,
2013-03-14 19:43:00,55.0,-99.9,-100.00,WSW,248,9.0,-999.0,-999,0.00,,,-99.99,,2013-03-15 00:43:00,
2013-03-14 19:53:00,54.0,-99.9,-100.00,WSW,253,7.0,-999.0,-999,0.00,,,-99.99,,2013-03-15 00:53:00,
2013-03-14 20:03:00,54.0,-99.9,-100.00,WSW,256,10.0,-999.0,-999,0.00,,,-99.99,,2013-03-15 01:03:00,
2013-03-14 20:12:00,54.0,-99.9,-100.00,WSW,256,10.0,-999.0,-999,0.00,,,-99.99,,2013-03-15 01:12:00,
2013-03-14 20:23:00,53.0,-99.9,-100.00,West,263,8.0,-999.0,-999,0.00,,,-99.99,,2013-03-15 01:23:00,
2013-03-14 20:33:00,53.0,-99.9,-100.00,WSW,249,9.0,-999.0,-999,0.00,,,-99.99,,2013-03-15 01:33:00,
2013-03-14 20:43:00,53.0,-99.9,-100.00,WSW,249,9.0,-999.0,-999,0.00,,,-99.99,,2013-03-15 01:43:00,
2013-03-14 20:52:00,53.0,-99.9,-100.00,West,263,8.0,-999.0,-999,0.00,,,-99.99,,2013-03-15 01:52:00,
2013-03-14 21:03:00,52.0,-99.9,-100.00,WSW,252,6.0,-999.0,-999,0.00,,,-99.99,,2013-03-15 02:03:00,
2013-03-14 21:12:00,52.0,-99.9,-100.00,WSW,252,6.0,-999.0,-999,0.00,,,-99.99,,2013-03-15 02:12:00,
2013-03-14 21:22:00,52.0,-99.9,-100.00,WSW,245,7.0,-999.0,-999,0.00,,,-99.99,,2013-03-15 02:22:00,
2013-03-14 21:33:00,52.0,-99.9,-100.00,West,259,6.0,-999.0,-999,0.00,,,-99.99,,2013-03-15 02:33:00,
2013-03-14 21:42:00,52.0,-99.9,-100.00,West,259,6.0,-999.0,-999,0.00,,,-99.99,,2013-03-15 02:42:00,
2013-03-14 21:52:00,52.0,-99.9,-100.00,West,274,8.0,-999.0,-999,0.00,,,-99.99,,2013-03-15 02:52:00,
2013-03-14 22:02:00,52.0,-99.9,-100.00,WNW,293,9.0,-999.0,-999,0.00,,,-99.99,,2013-03-15 03:02:00,
2013-03-14 22:13:00,52.0,-99.9,-100.00,WNW,293,9.0,-999.0,-999,0.00,,,-99.99,,2013-03-15 03:13:00,
2013-03-14 22:22:00,52.0,-99.9,-100.00,West,269,7.0,-999.0,-999,0.00,,,-99.99,,2013-03-15 03:22:00,
2013-03-14 22:33:00,52.0,-99.9,-100.00,WSW,253,7.0,-999.0,-999,0.00,,,-99.99,,2013-03-15 03:33:00,
2013-03-14 22:43:00,52.0,-99.9,-100.00,WSW,253,7.0,-999.0,-999,0.00,,,-99.99,,2013-03-15 03:43:00,
2013-03-14 22:53:00,52.0,-99.9,-100.00,West,278,7.0,-999.0,-999,0.00,,,-99.99,,2013-03-15 03:53:00,
2013-03-14 23:03:00,51.0,-99.9,-100.00,West,259,7.0,-999.0,-999,0.00,,,-99.99,,2013-03-15 04:03:00,
2013-03-14 23:13:00,51.0,-99.9,-100.00,West,259,7.0,-999.0,-999,0.00,,,-99.99,,2013-03-15 04:13:00,
2013-03-14 23:23:00,51.0,-99.9,-100.00,West,273,6.0,-999.0,-999,0.00,,,-99.99,,2013-03-15 04:23:00,
2013-03-14 23:33:00,51.0,-99.9,-100.00,West,262,8.0,-999.0,-999,0.00,,,-99.99,,2013-03-15 04:33:00,
2013-03-14 23:43:00,51.0,-99.9,-100.00,West,262,8.0,-999.0,-999,0.00,,,-99.99,,2013-03-15 04:43:00,
2013-03-14 23:53:00,51.0,-99.9,-100.00,West,269,6.0,-999.0,-999,0.00,,,-99.99,,2013-03-15 04:53:00,